www.pogodaiklimat.ru

Погода и климат >> Архив погоды >> Великобритания >> Сеннибридж


ПОГОДА в Сеннибридже

  • Прогноз погоды в Сеннибридже
  • Монитор погоды в Сеннибридже

АРХИВ ПОГОДЫ в Сеннибридже

Время (UTC), дата Ветер
(напр.,м/с)
 
Видим.   Явления Облачность Т
(С)
Тd
(С)
f
(%)
Тe
(С)
Тes
(С)
Комфортность P
(гПа)
Po
(гПа)
Тmin
(С)
Tmax
(С)
R
(мм)
R24
(мм)
S
(см)
19 18.08 ЮЗ 7 16 км н/о +13.3 +10.3 82 +11 +11 1006.4 970.2
20 18.08 ЮЗ 6 15 км н/о +12.6 +10.3 86 +10 +10 1007.0 970.8
21 18.08 ЮЗ 6 12 км н/о +12.5 +10.7 89 +10 +10 1007.6 971.3
22 18.08 ЮЗ 6 10 км н/о +12.3 +10.9 91 +10 +10 1008.0 971.7
23 18.08 ЮЗ 6 9000 м в посл. час дождь н/о +12.5 +11.4 93 +10 +10 1008.3 972.0
00 19.08 ЮЗ 5 9000 м слаб. морось с дождем н/о +12.4 +11.6 95 +10 +10 1008.8 972.4 0.0
01 19.08 ЮЗ 6 9000 м в посл. час дождь н/о +12.3 +11.9 97 +10 +10 1009.1 972.7
02 19.08 ЮЗ 5 11 км н/о +12.2 +11.7 97 +10 +10 1009.1 972.7
03 19.08 З 5 15 км в посл. час дождь н/о +12.0 +11.7 98 +9 +9 1009.2 972.8
04 19.08 З 5 14 км слаб. морось с дождем н/о +11.9 +11.5 97 +9 +9 1009.8 973.3
05 19.08 З 5 15 км в посл. час дождь н/о +11.7 +11.3 97 +9 +9 1010.4 973.9
06 19.08 З 2 14 км в посл. час дождь н/о +11.7 +11.3 97 +10 +10 1011.0 974.5 +11.6 1
07 19.08 З 3 16 км в посл. час дождь н/о +12.3 +11.8 97 +11 +11 1011.4 975.0
08 19.08 ЮЗ 4 25 км в посл. час морось н/о +12.7 +11.6 93 +11 +11 1012.0 975.6
09 19.08 ЮЗ 4 10 км в посл. час дождь н/о +13.2 +12.2 94 +12 +12 1012.5 976.1
10 19.08 ЮЗ 4 45 км в посл. час дождь н/о +11.9 +11.0 94 +10 +10 1013.5 976.9
11 19.08 З 3 40 км в посл. час дождь н/о +13.1 +11.5 90 +12 +12 1013.8 977.4
12 19.08 З 2 40 км н/о +14.7 +10.8 77 +14 +14 1014.1 977.8 1
13 19.08 З 4 30 км в посл. час дождь н/о +14.9 +11.2 79 +14 +14 1014.7 978.5
14 19.08 З 2 35 км н/о +15.1 +8.5 65 +15 +15 1014.9 978.7
15 19.08 З 6 50 км н/о +15.6 +9.0 65 +14 +14 1015.1 978.9
16 19.08 ЮЗ 7 18 км н/о +15.2 +11.2 77 +13 +13 1015.5 979.2
17 19.08 З 5 26 км в посл. час дождь н/о +14.4 +10.4 77 +13 +13 1015.7 979.4
18 19.08 З 6 50 км в посл. час дождь н/о +14.2 +8.7 69 +12 +12 1016.2 979.8 +16.6 2
19 19.08 З 3 35 км н/о +12.8 +9.0 78 +11 +11 1016.8 980.2
20 19.08 З 4 35 км н/о +11.4 +9.0 85 +9 +9 1017.6 980.8
21 19.08 ЮЗ 4 25 км н/о +11.1 +9.6 90 +9 +9 1018.1 981.2
22 19.08 З 4 20 км н/о +11.1 +10.0 93 +9 +9 1018.4 981.6
23 19.08 З 4 17 км н/о +10.6 +9.8 95 +8 +8 1019.0 982.0
00 20.08 З 3 14 км н/о +10.1 +9.6 97 +8 +8 1019.2 982.2
01 20.08 ЮЗ 3 13 км н/о +9.1 +8.7 97 +7 +7 1019.5 982.3
02 20.08 ЮЗ 2 11 км н/о +7.4 +7.0 97 +5 +5 1020.1 982.7
03 20.08 Ю 2 14 км н/о +7.9 +7.6 98 +6 +6 1020.2 982.8
04 20.08 З 3 14 км н/о +8.3 +8.0 98 +5 +5 1020.4 983.1
05 20.08 З 3 12 км н/о +9.0 +8.6 97 +6 +6 1020.8 983.6
06 20.08 З 3 12 км н/о +9.3 +9.0 98 +7 +7 1021.5 984.3 +7.3 0.2
07 20.08 З 2 5000 м морось с дождем н/о +10.2 +9.6 96 +9 +9 1022.1 985.0
08 20.08 З 2 12 км в посл. час дождь н/о +11.7 +10.0 89 +11 +11 1022.5 985.6
09 20.08 З 2 18 км н/о +12.9 +9.2 78 +12 +12 1022.9 986.1
10 20.08 З 4 19 км н/о +14.1 +8.6 69 +13 +13 1023.3 986.7
11 20.08 З 3 30 км н/о +15.3 +7.3 59 +15 +15 1023.5 987.0
12 20.08 З 3 30 км н/о +15.1 +7.4 60 +15 +15 1023.7 987.2 0.0
13 20.08 ЮЗ 5 28 км н/о +16.0 +7.9 59 +15 +15 1023.6 987.2
14 20.08 З 6 35 км н/о +15.2 +9.3 68 +14 +14 1024.1 987.6
15 20.08 З 5 30 км н/о +15.0 +10.8 76 +14 +14 1024.3 987.7
16 20.08 ЮЗ 6 19 км в посл. час дождь н/о +13.2 +11.1 87 +11 +11 1024.8 988.0
17 20.08 ЮЗ 4 7000 м в посл. час дождь н/о +12.7 +12.0 96 +11 +11 1024.8 987.9
18 20.08 ЮЗ 4 5000 м слаб. морось н/о +13.1 +12.5 96 +11 +11 1025.0 988.2 +16.7 0.2
19 20.08 З 4 14 км в посл. час дождь н/о +13.4 +12.8 96 +12 +12 1025.3 988.5
20 20.08 ЮЗ 5 14 км н/о +13.3 +12.7 96 +11 +11 1025.6 988.8
21 20.08 ЮЗ 4 13 км н/о +12.9 +12.3 96 +11 +11 1025.9 989.0
22 20.08 ЮЗ 4 17 км н/о +12.8 +12.1 96 +11 +11 1026.1 989.2
23 20.08 0 13 км н/о +12.5 +11.9 96 1026.3 989.4
00 21.08 ЮЗ 4 11 км н/о +12.4 +11.8 96 +10 +10 1026.3 989.4 0.4
01 21.08 ЮЗ 3 14 км н/о +12.4 +11.8 96 +11 +11 1026.3 989.3
02 21.08 ЮЗ 4 16 км н/о +12.5 +11.8 95 +11 +11 1026.3 989.4
03 21.08 ЮЗ 4 14 км н/о +12.4 +11.8 96 +10 +10 1026.2 989.3
04 21.08 ЮЗ 4 11 км н/о +12.2 +11.7 97 +10 +10 1026.2 989.2
05 21.08 ЮЗ 3 11 км дымка н/о +12.2 +11.8 97 +11 +11 1026.2 989.2
06 21.08 ЮЗ 3 11 км н/о +12.2 +11.9 98 +11 +11 1026.3 989.3 +11.9 0.4
07 21.08 Ю 3 20 км н/о +12.9 +12.4 97 +11 +11 1026.6 989.7
08 21.08 ЮЗ 3 29 км н/о +13.6 +12.7 94 +12 +12 1026.4 989.6
09 21.08 ЮЗ 6 27 км н/о +15.9 +12.6 81 +15 +15 1025.8 989.3
10 21.08 ЮЗ 6 35 км н/о +15.3 +11.3 77 +14 +14 1025.8 989.2
11 21.08 ЮЗ 8 5000 м слаб. ливневой дождь н/о +14.5 +12.0 85 +12 +12 1026.0 989.3
12 21.08 ЮЗ 6 40 км слаб. ливневой дождь н/о +15.3 +12.4 83 +14 +14 1025.5 988.9 0.6
13 21.08 ЮЗ 8 30 км в посл. час дождь н/о +15.1 +12.3 83 +13 +13 1025.3 988.7
14 21.08 ЮЗ 4 30 км в посл. час дождь н/о +14.6 +13.0 90 +13 +13 1025.2 988.6
15 21.08 ЮЗ 5 45 км в посл. час дождь н/о +15.5 +13.5 88 +14 +14 1024.8 988.3
16 21.08 ЮЗ 7 40 км н/о +15.0 +11.2 78 +13 +13 1024.7 988.2
17 21.08 ЮЗ 6 30 км н/о +14.7 +11.0 78 +13 +13 1024.5 987.9
18 21.08 ЮЗ 6 30 км н/о +14.2 +11.7 85 +12 +12 1024.2 987.5 +16.6 0.6
19 21.08 ЮЗ 6 35 км н/о +13.6 +11.7 88 +11 +11 1024.1 987.3
20 21.08 ЮЗ 5 25 км н/о +13.0 +11.5 91 +11 +11 1024.5 987.7
21 21.08 ЮЗ 5 22 км н/о +12.5 +11.4 93 +10 +10 1024.3 987.4
22 21.08 ЮЗ 5 21 км н/о +12.6 +11.5 93 +10 +10 1024.1 987.3
23 21.08 ЮЗ 6 19 км н/о +12.4 +11.4 94 +10 +10 1023.8 986.9
00 22.08 ЮЗ 6 24 км н/о +12.7 +11.7 94 +10 +10 1023.9 987.1
01 22.08 ЮЗ 6 24 км н/о +13.2 +12.0 92 +11 +11 1023.3 986.6
02 22.08 ЮЗ 7 25 км н/о +13.5 +12.1 91 +11 +11 1022.9 986.2
03 22.08 ЮЗ 7 3100 м слаб. морось н/о +13.1 +12.5 96 +10 +10 1022.9 986.1
04 22.08 ЮЗ 6 4300 м слаб. дождь н/о +13.2 +13.0 99 +11 +11 1022.7 986.0
05 22.08 ЮЗ 6 4100 м морось н/о +13.5 +13.3 99 +11 +11 1022.4 985.8
06 22.08 ЮЗ 7 4100 м морось н/о +13.7 +13.5 99 +11 +11 1022.8 986.1 +12.3 1
07 22.08 ЮЗ 7 3100 м морось н/о +14.0 +13.8 99 +12 +12 1023.0 986.3
08 22.08 ЮЗ 7 2700 м в посл. час дождь н/о +14.6 +14.2 97 +13 +13 1023.2 986.6
09 22.08 ЮЗ 8 2700 м слаб. морось с дождем н/о +15.3 +14.9 97 +13 +13 1023.0 986.5
10 22.08 ЮЗ 7
{13}
9000 м в посл. час дождь н/о +15.5 +14.9 96 +14 +14 1023.1 986.7
11 22.08 ЮЗ 8
{14}
3900 м ливневой дождь н/о +15.4 +14.8 96 +13 +13 1023.3 986.9
12 22.08 ЮЗ 9-15
{15}
30 км в посл. час дождь н/о +16.0 +14.9 93 +14 +14 1023.3 986.9 2
13 22.08 ЮЗ 8
{13}
3000 м в посл. час дождь н/о +15.8 +15.3 97 +14 +14 1023.3 986.9
14 22.08 ЮЗ 9-14
{14}
16 км в посл. час дождь н/о +16.4 +15.9 97 +15 +15 1023.5 987.1
15 22.08 ЮЗ 8
{14}
27 км в посл. час дождь н/о +16.6 +15.9 96 +15 +15 1023.4 987.1
16 22.08 ЮЗ 7
{13}
16 км в посл. час дождь н/о +16.3 +15.1 93 +15 +15 1023.6 987.2
17 22.08 ЮЗ 7 26 км н/о +16.6 +15.0 90 +15 +15 1023.4 987.1
18 22.08 ЮЗ 5 30 км н/о +15.8 +14.4 91 +15 +15 1023.9 987.4 +16.9 2
19 22.08 ЮЗ 5 7000 м в посл. час дождь н/о +15.0 +14.6 97 +13 +13 1024.5 987.9
20 22.08 ЮЗ 5 3500 м слаб. морось с дождем н/о +15.0 +14.8 99 +13 +13 1024.8 988.2
21 22.08 ЮЗ 5 4200 м слаб. морось н/о +15.0 +14.9 99 +13 +13 1025.0 988.4
22 22.08 ЮЗ 5 7000 м в посл. час морось н/о +15.0 +14.9 99 +14 +14 1025.0 988.4
23 22.08 ЮЗ 5 11 км в посл. час дождь н/о +15.0 +14.9 99 +13 +13 1025.0 988.4
00 23.08 ЮЗ 4 10 км дымка н/о +15.0 +14.8 99 +14 +14 1025.0 988.4 0.2
01 23.08 ЮЗ 4 16 км н/о +14.8 +14.6 99 +13 +13 1025.0 988.3
02 23.08 ЮЗ 3 3200 м дымка н/о +14.7 +14.5 99 +14 +14 1025.0 988.3
03 23.08 ЮЗ 4 20 км в посл. час дождь н/о +14.4 +14.3 99 +13 +13 1025.0 988.3
04 23.08 ЮЗ 3 17 км в посл. час дождь н/о +14.4 +14.3 99 +14 +14 1024.8 988.2
05 23.08 ЮЗ 3 10 км дымка н/о +14.3 +14.2 99 +13 +13 1024.6 988.0
06 23.08 ЮЗ 4 6000 м н/о +14.3 +14.2 99 +13 +13 1024.7 988.0 +13.9 0.4
07 23.08 ЮЗ 4 50 км в посл. час дождь н/о +14.5 +14.4 99 +13 +13 1024.6 988.0
08 23.08 ЮЗ 3 45 км н/о +15.0 +14.4 96 +14 +14 1024.7 988.1
09 23.08 ЮЗ 4 40 км н/о +16.1 +14.4 90 +15 +15 1024.6 988.2
10 23.08 ЮЗ 4 22 км н/о +17.0 +15.0 88 +16 +16 1024.5 988.1
11 23.08 ЮЗ 4 35 км н/о +17.8 +15.0 84 +18 +18 1024.2 988.0
12 23.08 ЮЗ 2 30 км н/о +19.0 +15.7 81 +21 +21 комфорт 1023.5 987.5 0.2
13 23.08 Ю 4 50 км н/о +20.3 +14.5 69 +23 +23 комфорт 1023.0 987.2
14 23.08 Ю 4 35 км н/о +20.2 +13.9 67 +22 +22 комфорт 1022.7 986.9
15 23.08 Ю 4 35 км н/о +21.2 +14.4 65 +24 +24 комфорт 1022.0 986.3
16 23.08 Ю 4 50 км н/о +21.5 +15.0 66 +25 +25 комфорт 1021.6 985.9
17 23.08 Ю 4 35 км н/о +21.1 +13.6 62 +24 +24 комфорт 1021.2 985.5
18 23.08 Ю 4 45 км н/о +19.9 +14.1 69 +22 +22 комфорт 1021.2 985.3 +21.8 0.2
19 23.08 Ю 3 50 км н/о +17.8 +13.6 76 +18 +18 1021.3 985.2
20 23.08 ЮВ 4 50 км н/о +15.1 +11.7 80 +14 +14 1021.6 985.1
21 23.08 Ю 2 50 км н/о +14.4 +11.2 81 +14 +14 1021.5 985.0
22 23.08 ЮЗ 2 50 км н/о +14.2 +11.0 81 +14 +14 1021.2 984.7
23 23.08 ЮВ 2 40 км н/о +12.3 +10.9 91 +11 +11 1021.5 984.7
00 24.08 В 1 30 км н/о +11.5 +9.5 88 +12 +12 1021.5 984.6
01 24.08 ЮВ 3 29 км н/о +11.8 +10.1 89 +10 +10 1021.1 984.3
02 24.08 СВ 1 12 км н/о +10.2 +9.5 95 +10 +10 1021.1 984.1
03 24.08 С 1 6000 м дымка н/о +9.3 +8.7 96 +9 +9 1021.1 983.9
04 24.08 С 2 700 м туман н/о +9.2 +8.9 98 +8 +8 1020.9 983.7
05 24.08 С 2 300 м туман н/о +8.4 +8.2 99 +7 +7 1020.7 983.4
06 24.08 С 2 300 м туман н/о +7.9 +7.8 99 +6 +6 1020.5 983.2 +7.3
07 24.08 СВ 2 10 км в посл. час туман н/о +9.5 +9.5 100 +8 +8 1020.2 983.1
08 24.08 С 2 30 км н/о +11.7 +11.4 98 +10 +10 1019.7 982.9
09 24.08 С 2 27 км н/о +15.6 +12.8 83 +15 +15 1019.1 982.8
10 24.08 С 2 35 км н/о +18.0 +13.0 73 +19 +19 1018.7 982.7
11 24.08 ЮВ 3 27 км н/о +21.8 +13.0 57 +24 +24 комфорт 1017.9 982.4
12 24.08 ЮВ 5 45 км н/о +23.1 +14.4 58 +27 +27 душно 1017.2 981.9
13 24.08 Ю 6 50 км н/о +23.9 +11.3 45 +25 +25 комфорт 1016.7 981.5
14 24.08 Ю 6 40 км н/о +24.6 +11.7 44 +26 +26 жарко 1016.3 981.2
15 24.08 Ю 6 40 км н/о +24.6 +12.8 48 +27 +27 жарко 1016.0 980.9
16 24.08 Ю 5 50 км н/о +24.6 +13.7 51 +27 +27 жарко 1015.9 980.7
17 24.08 Ю 5 30 км н/о +24.2 +14.0 53 +27 +27 жарко 1015.5 980.3
18 24.08 Ю 5 40 км н/о +22.9 +14.8 60 +27 +27 душно 1015.4 980.1 +25.1
19 24.08 Ю 6 40 км н/о +20.9 +13.5 63 +23 +23 комфорт 1015.7 980.1
20 24.08 ЮВ 4 50 км н/о +18.1 +12.8 71 +18 +18 1016.7 980.7
21 24.08 ЮВ 5 13 км н/о +19.1 +11.8 63 +20 +20 1016.4 980.7
22 24.08 ЮВ 5 45 км н/о +19.6 +10.9 57 +21 +21 комфорт 1016.3 980.6
23 24.08 ЮВ 4 35 км н/о +18.3 +10.8 62 +19 +19 1016.7 980.8
00 25.08 ЮВ 3 12 км н/о +18.3 +10.9 62 +19 +19 1016.6 980.7
01 25.08 В 2 40 км н/о +17.2 +11.3 68 +18 +18 1016.6 980.5
02 25.08 С 2 45 км н/о +16.0 +11.6 75 +16 +16 1016.4 980.3
03 25.08 СЗ 1 30 км н/о +14.9 +12.4 85 +15 +15 1016.5 980.2
04 25.08 СЗ 2 35 км н/о +14.8 +12.5 86 +15 +15 1016.6 980.3
05 25.08 В 1 30 км н/о +12.5 +10.2 86 +13 +13 1016.9 980.3
06 25.08 ЮВ 1 30 км н/о +11.0 +9.6 91 +12 +12 1017.5 980.6 +10.8
07 25.08 Ю 1 21 км н/о +14.1 +13.3 95 +14 +14 1017.5 981.1
08 25.08 Ю 1 12 км дым н/о +18.2 +12.9 71 +20 +20 1017.3 981.4
09 25.08 С 1 14 км н/о +20.3 +13.9 67 +24 +24 комфорт 1017.3 981.6
10 25.08 Ю 2 21 км дым н/о +22.0 +13.2 57 +25 +25 комфорт 1017.2 981.7
11 25.08 З 3 29 км н/о +20.5 +16.3 77 +24 +24 комфорт 1017.6 982.0
12 25.08 З 3 18 км н/о +21.3 +16.6 75 +25 +25 комфорт 1017.6 982.0
13 25.08 ЮЗ 2 35 км н/о +22.2 +16.9 72 +27 +27 душно 1017.5 982.1
14 25.08 ЮЗ 3 19 км н/о +23.0 +17.7 72 +28 +28 душно 1017.3 981.9
15 25.08 З 4 17 км н/о +22.7 +17.5 72 +28 +28 душно 1017.6 982.2
16 25.08 З 3 30 км н/о +22.3 +16.1 68 +26 +26 жарко 1017.7 982.2
17 25.08 З 4 19 км н/о +21.7 +16.4 72 +26 +26 душно 1018.0 982.5
18 25.08 З 2 26 км н/о +20.0 +16.1 78 +23 +23 комфорт 1018.7 983.0 +23.6
19 25.08 штиль 0 15 км н/о +17.6 +15.3 86 +18 +18 1019.2 983.1

 

Местоположение метеостанции Сеннибридж (Великобритания): широта 52.07 долгота -3.62 высота над уровнем моря 307 м.

В архиве по умолчанию представлена погода в Сеннибридже за последнюю неделю. Архивные данные за месяц целиком и за предыдущие месяцы, начиная с января 2011 года, Вы можете получить, выбрав интересующий диапазон дат из раскрывающегося списка и нажав кнопку "Ввод!".


*Определитесь, кто Вы:
робот инопланетянин человек

Внимание! Время в таблицах - всемирное. Для получения местного времени необходимо прибавить поправку, которая равна 0 ч.

Смотрите также архив погоды в соседних городах и на ближайших метеорологических станциях:

Погода в Троскоеде (Великобритания) (38 км)
Погода в Шобдоне (Великобритания) (54 км)
Погода в Хирфорде (Великобритания) (56 км)
Погода в Мамблсе (Великобритания) (61 км)
Погода в Пембри Сэндс (Великобритания) (65 км)
Погода в Аберпорте (Великобритания) (65 км)
Погода в Сейнт Атан (Великобритания) (76 км)
Погода на Озере Вирнви (Великобритания) (76 км)
Погода в Бала (Великобритания) (92 км)
Погода в Филтоне (Великобритания) (94 км)

Пояснения к столбцам:

Ветер - указаны скорость ветра в м/с - средняя за 10 мин, порывы в срок и между сроками (в фигурных скобках) и направление, откуда дует ветер: С - северный, СВ - северо-восточный, В - восточный, ЮВ - юго-восточный, Ю - южный, ЮЗ - юго-западный, З - западный, СЗ - северо-западный.
Видимость - горизонтальная дальность видимости в метрах или километрах. При видимости от 1 до 10 км при отсутствии осадков обычно наблюдается дымка, при ухудшении видимости до 1 км и менее - туман. В сухую погоду видимость может ухудшаться дымом, пылью или мглою.
Явления - указаны атмосферные явления, наблюдавшиеся в срок или в последний час перед сроком; фигурными скобками обозначены явления, наблюдавшиеся между сроками (за 1-3 часа до срока); квадратными скобками обозначены град или гололедные отложения с указанием их диаметра в мм.
Облачность - указаны через наклонную черту общая и нижняя облачность в баллах и высота нижней границы облаков в метрах; квадратными скобками обозначены формы облаков: Ci - перистые, Cs - перисто-слоистые, Cc - перисто-кучевые, Ac - высококучевые, As - высокослоистые, Sc - слоисто-кучевые, Ns - слоисто-дождевые, Cu - кучевые, Cb - кучево-дождевые. Подробнее классификацию облаков см. в Атласе облаков (PDF).
T - Температура воздуха - температура, измеренная на высоте 2 м над землей.
Td - Температура точки росы - температура, при понижении до которой содержащийся в воздухе водяной пар достигнет насыщения.
f - Относительная влажность воздуха - влажноcть воздуха, измеренная на высоте 2 м над землей.
Te - Эффективная температура - температура, которую ощущает одетый по сезону человек в тени. Характеристика душности погоды. При расчете учитывается влияние влажности воздуха и скорости ветра на теплоощущения человека.
Tes - Эффективная температура на солнце - температура, которую ощущает человек, с поправкой на солнечный нагрев. Характеристика знойности погоды. Зависит от высоты солнца над горизонтом, облачности и скорости ветра. Ночью, в пасмурную погоду, а также при ветре 12 м/с и более поправка равна нулю.
P - Атмосферное давление - приведенное к уровню моря атмосферное давление.
Po - Атмосферное давление - измеренное на уровне метеостанции атмосферное давление.
Tmin - Минимальная температура - минимум температуры воздуха на высоте 2 м над землей.
Tmax - Максимальная температура - максимум температуры воздуха на высоте 2 м над землей.
R - Количество осадков - Количество выпавших осадков за период времени, мм. При наведении курсора мыши на число - период времени, за который выпало указанное количество осадков.
R24 - Количество осадков - Количество выпавших осадков за 24 часа, мм.
S - Снежный покров - Высота снежного покрова, см. При наведении курсора мыши на число - состояние снежного покрова и степень покрытия местности в баллах.